Regional Weather Roundup
Issued by NWS

Home | Current Version | Previous Version | Text Only | Print | Product List | Glossary Off
Versions: 1 2 3 4 5 6 7 8 9 10 11 12 13 14 15 16 17 18 19 20 21 22 23 24 25 26 27 28 29 30 31 32 33 34 35 36 37 38 39 40 41 42 43 44 45 46 47 48 49 50

000
ASUS43 KIND 300509
RWRIN

WEATHER ROUNDUP FOR INDIANA
NATIONAL WEATHER SERVICE INDIANAPOLIS IN
100 AM EDT TUE AUG 30 2016

NOTE: "FAIR" INDICATES FEW OR NO CLOUDS BELOW 12,000 FEET WITH NO
SIGNIFICANT WEATHER AND/OR OBSTRUCTIONS TO VISIBILITY.

* - STATION DOES NOT REPORT WEATHER SUCH AS PRECIPITATION OR FOG.

+ - STATION NOT QUALITY CONTROLLED BY THE NATIONAL WEATHER SERVICE.
    USE DATA WITH CAUTION...ESPECIALLY DEWPOINT AND RELATIVE
    HUMIDITY OBSERVATIONS.

INZ001>003-010>013-019-020-300600-
NORTHWEST INDIANA

CITY           SKY/WX    TMP DP  RH WIND       PRES   REMARKS
GARY /AIRPORT/ PTCLDY    74  74 100 CALM      30.18F
KNOX *+        PTCLDY    70  55  60 CALM      30.18S
LA PORTE +     CLEAR    N/A N/A N/A CALM      30.19S
MICHIGAN CITY+ CLEAR     72  72 100 MISG      30.19S
MONTICELLO +   CLEAR     73  68  84 CALM      30.17S
RENSSELAER +   CLEAR     72  70  94 CALM      30.18S
VALPARAISO     CLEAR     73  70  90 CALM      30.19S

$$

LMZ046-743>745-300600-
SOUTHERN LAKE MICHIGAN

STATION/POSITION TIME  TEMP    WIND        PRES    WAVE
                       AIR SEA DIR/SP/G            HT
                 (UTC) (F)     (DEG/KT/KT) (MB)    (FT)
BURNS HARBOR     0402   74      CALM  /  9 1022.0R
MICHIGAN CITY    0400   76     120/  2/  3   N/A
5NW MICH CITY    0500   74 76  140/  4/  4   N/A     1

$$

INZ004-005-014>016-021>024-300600-
NORTH CENTRAL INDIANA

CITY           SKY/WX    TMP DP  RH WIND       PRES   REMARKS
GOSHEN         PTCLDY    73  68  84 SE5       30.20R
LOGANSPORT +   CLEAR     72  70  94 CALM      30.19S
ROCHESTER +    CLEAR     73  72  94 CALM      30.19S
SOUTH BEND     CLEAR     72  71  97 CALM      30.19S
WARSAW +       CLEAR     70  70 100 CALM      30.20S

$$

INZ006>009-017-018-025>027-300600-
NORTHEAST INDIANA

CITY           SKY/WX    TMP DP  RH WIND       PRES   REMARKS
ANGOLA *+      CLEAR     70  63  78 SE3       30.21S
AUBURN +       CLEAR     70  64  83 CALM      30.21S
FORT WAYNE     PTCLDY    71  66  84 E6        30.20S
HUNTINGTON +   CLEAR     71  69  93 CALM      30.20S

$$

INZ028-029-035-036-043>045-051>053-300600-
WEST CENTRAL INDIANA

CITY           SKY/WX    TMP DP  RH WIND       PRES   REMARKS
CRAWFORDSVL +  CLEAR     68  68 100 CALM      30.18S
GREENCASTLE +  CLEAR     72  72 100 CALM      30.18S
LAFAYETTE      CLEAR     73  73 100 CALM      30.16S
TERRE HAUTE    CLEAR     72  70  93 CALM      30.16S

$$

INZ030>032-037>040-046>048-054>057-064-065-300600-
CENTRAL INDIANA

CITY           SKY/WX    TMP DP  RH WIND       PRES   REMARKS
INDIANAPOLIS   CLEAR     78  70  76 E6        30.16F
-EAGLE CREEK   CLEAR     76  70  82 CALM      30.16F
KOKOMO *+      CLEAR     72  70  94 E5        30.18S
MARION +       CLEAR     72  69  89 E3        30.20R
MT COMFORT *+  CLEAR     70  68  94 CALM      30.18F
SHELBYVILLE    CLEAR     73  69  87 NE3       30.17S
ZIONSVILLE +   CLEAR     69  68  98 CALM      30.18F

$$

INZ033-034-041-042-049-050-058-059-300600-
EAST CENTRAL INDIANA

CITY           SKY/WX    TMP DP  RH WIND       PRES   REMARKS
MUNCIE         CLEAR     73  69  87 E3        30.19S

$$

INZ060-061-067>069-081>083-085>088-300600-
SOUTHWEST INDIANA

CITY           SKY/WX    TMP DP  RH WIND       PRES   REMARKS
EVANSVILLE     CLEAR     77  70  79 NE3       30.14S
HUNTINGBURG *+ CLEAR     73  68  83 NE5       30.15S
WASHINGTON +   CLEAR     72  72 100 MISG      30.14F

$$

INZ062-063-066-070>080-084-089>092-300600-
SOUTH CENTRAL AND SOUTHEAST INDIANA

CITY           SKY/WX    TMP DP  RH WIND       PRES   REMARKS
BLOOMINGTON    CLEAR     70  68  93 CALM      30.17S
MADISON *+     CLEAR     72  70  94 CALM      30.19S

$$





USA.gov is the U.S. government's official web portal to all federal, state and local government web resources and services.